Stations météo

réclame
Mon MeteoGroup
Charleroi/Gosselies, Belgique (6449): Température de l'air & dewpoint: 17.08.2019 15:00:00 - 23.08.2019 15:00:00 (CEST)Charleroi/Gosselies, Belgique (6449): Vitesse du vent & gusts: 17.08.2019 15:00:00 - 23.08.2019 15:00:00 (CEST)Charleroi/Gosselies, Belgique (6449): Direction du vent: 17.08.2019 15:00:00 - 23.08.2019 15:00:00 (CEST)Charleroi/Gosselies, Belgique (6449): reduced air pressure: 17.08.2019 15:00:00 - 23.08.2019 15:00:00 (CEST)Charleroi/Gosselies, Belgique (6449): visibility: 17.08.2019 15:00:00 - 23.08.2019 15:00:00 (CEST)
Date & Time tt [°C] td [°C] ff [km/h] ff [knt] fx [km/h] fx [knt] dd ppp [hPa] vv [km]
23.08.2019 15:00:00 26,4 11,1 13 7 22 12 ENE 1023,9 10
23.08.2019 14:00:00 25,7 10,7 8 4 - - - 1024,5 10
23.08.2019 13:00:00 24,5 10,5 11 6 22 12 ENE 1025,1 12
23.08.2019 12:00:00 24,1 11,3 13 7 22 12 ENE 1025,6 10
23.08.2019 11:00:00 22,3 12,0 11 6 - - E 1025,8 10
23.08.2019 10:00:00 20,0 13,0 5 3 11 6 ENE 1026,1 10
23.08.2019 09:00:00 16,6 12,8 5 3 11 6 ESE 1026,4 10
23.08.2019 08:00:00 14,3 12,4 5 3 - - ESE 1026,3 10
23.08.2019 07:00:00 12,7 11,0 5 3 11 6 ESE 1026,4 10
23.08.2019 06:00:00 13,0 11,3 8 4 11 6 ESE 1026,5 10
23.08.2019 05:00:00 12,8 11,3 5 3 - - E 1026,7 10
23.08.2019 04:00:00 13,6 11,3 4 2 7 4 NNE 1026,7 10
23.08.2019 03:00:00 13,4 11,0 4 2 4 2 - 1027,0 10
23.08.2019 02:00:00 14,0 11,0 2 1 - - - 1027,0 10
23.08.2019 01:00:00 14,3 10,2 4 2 11 6 - 1027,0 10
23.08.2019 00:00:00 16,1 9,7 8 4 14 8 NNW 1026,6 10
22.08.2019 23:00:00 17,6 8,4 8 4 - - NW 1026,4 10
22.08.2019 22:00:00 19,0 9,0 4 2 7 4 - 1026,2 10
22.08.2019 21:00:00 20,2 10,1 4 2 11 6 - 1025,4 10
22.08.2019 20:00:00 22,4 8,5 8 4 - - W 1025,0 10
22.08.2019 19:00:00 23,6 7,7 11 6 18 10 SW 1024,9 25
22.08.2019 18:00:00 24,4 8,0 9 5 18 10 W 1024,7 10
22.08.2019 17:00:00 24,2 8,8 8 4 - - - 1024,9 10
22.08.2019 16:00:00 24,0 9,0 8 4 25 14 - 1025,2 10
22.08.2019 15:00:00 24,2 9,6 13 7 22 12 WSW 1025,7 10
22.08.2019 14:00:00 23,3 9,0 9 5 - - - 1025,9 10
22.08.2019 13:00:00 22,8 9,8 9 5 18 10 W 1026,1 10
22.08.2019 12:00:00 22,1 9,8 8 4 14 8 W 1026,4 10
22.08.2019 11:00:00 20,5 10,4 8 4 - - W 1026,5 10
22.08.2019 10:00:00 18,1 11,1 8 4 14 8 SW 1026,5 10
22.08.2019 09:00:00 15,5 10,9 9 5 14 8 S 1026,5 10
22.08.2019 08:00:00 12,8 10,4 7 4 - - S 1026,4 25
22.08.2019 07:00:00 11,4 9,7 5 3 7 4 S 1026,0 10
22.08.2019 06:00:00 11,2 9,9 5 3 7 4 S 1025,9 10
22.08.2019 05:00:00 11,5 10,2 5 3 - - SSW 1026,0 10
22.08.2019 04:00:00 11,8 10,0 4 2 7 4 - 1026,1 10
22.08.2019 03:00:00 12,5 10,2 2 1 7 4 S 1026,2 10
22.08.2019 02:00:00 12,3 9,8 4 2 - - S 1026,5 25
22.08.2019 01:00:00 14,0 9,8 2 1 7 4 E 1026,8 10
22.08.2019 00:00:00 14,9 8,9 5 3 18 10 E 1026,8 10
21.08.2019 23:00:00 15,5 9,3 9 5 - - E 1026,9 10
21.08.2019 22:00:00 16,7 9,2 9 5 11 6 ENE 1026,7 10
21.08.2019 21:00:00 18,0 8,3 9 5 14 8 NNE 1026,4 10
21.08.2019 20:00:00 20,7 6,0 9 5 - - ENE 1026,0 10
21.08.2019 19:00:00 21,5 7,4 5 3 18 10 ENE 1026,0 10
21.08.2019 18:00:00 21,7 7,5 8 4 22 12 NNE 1026,4 10
21.08.2019 17:00:00 22,2 7,5 9 5 - - NNW 1026,6 10
21.08.2019 16:00:00 22,1 8,1 11 6 18 10 ENE 1027,0 25
21.08.2019 15:00:00 21,4 8,2 8 4 14 8 E 1027,3 10
21.08.2019 14:00:00 20,6 7,4 4 2 - - - 1027,9 10
21.08.2019 13:00:00 19,4 7,8 2 1 14 8 - 1028,5 10
21.08.2019 12:00:00 19,1 9,7 5 3 14 8 E 1028,9 10
21.08.2019 11:00:00 17,8 10,2 5 3 - - ESE 1029,2 10
21.08.2019 10:00:00 16,3 10,7 2 1 7 4 - 1029,3 10
21.08.2019 09:00:00 14,9 11,3 2 1 4 2 - 1029,3 10
21.08.2019 08:00:00 12,4 10,7 4 2 - - - 1029,1 10
21.08.2019 07:00:00 9,2 8,3 5 3 11 6 S 1029,0 10
21.08.2019 06:00:00 9,9 8,4 4 2 7 4 S 1028,7 10
21.08.2019 05:00:00 10,1 8,6 5 3 - - SW 1028,7 10
21.08.2019 04:00:00 10,6 8,2 5 3 11 6 WSW 1028,6 10
21.08.2019 03:00:00 11,4 8,3 5 3 11 6 W 1028,4 10
21.08.2019 02:00:00 12,1 8,3 8 4 - - W 1028,4 10
21.08.2019 01:00:00 12,8 8,5 5 3 11 6 W 1028,2 10
21.08.2019 00:00:00 13,9 8,6 7 4 11 6 W 1027,7 25
20.08.2019 23:00:00 14,6 9,0 5 3 - - W 1027,4 10
20.08.2019 22:00:00 15,3 8,7 5 3 11 6 W 1026,8 10
20.08.2019 21:00:00 16,9 9,2 8 4 18 10 W 1026,0 10
20.08.2019 20:00:00 19,0 9,2 11 6 - - WNW 1025,4 10
20.08.2019 19:00:00 19,8 8,2 5 3 25 14 WNW 1024,6 10
20.08.2019 18:00:00 20,2 8,4 15 8 22 12 W 1024,2 10
20.08.2019 17:00:00 20,3 9,2 9 5 - - WNW 1024,1 10
20.08.2019 16:00:00 20,7 8,3 15 8 32 18 W 1023,7 10
20.08.2019 15:00:00 20,2 9,6 15 8 29 16 W 1023,6 10
20.08.2019 14:00:00 20,5 9,9 15 8 - - W 1023,4 10
20.08.2019 13:00:00 19,7 9,6 18 10 32 18 WSW 1023,7 10
20.08.2019 12:00:00 17,9 9,0 18 10 36 19 SW 1023,6 10
20.08.2019 11:00:00 16,1 11,0 16 9 - - WSW 1023,6 10
20.08.2019 10:00:00 15,4 11,8 15 8 22 12 WSW 1023,5 10
20.08.2019 09:00:00 14,3 11,9 11 6 18 10 SSW 1023,2 10
20.08.2019 08:00:00 12,2 10,9 11 6 - - SSW 1022,9 10
20.08.2019 07:00:00 10,9 9,9 11 6 14 8 S 1022,6 10
20.08.2019 06:00:00 10,4 9,7 9 5 11 6 SW 1022,1 10
20.08.2019 05:00:00 11,0 9,8 8 4 - - SW 1021,9 10
20.08.2019 04:00:00 12,5 10,5 11 6 14 8 SW 1021,8 10
20.08.2019 03:00:00 12,3 10,0 11 6 14 8 SW 1021,7 10
20.08.2019 02:00:00 13,3 10,1 13 7 - - SW 1021,7 10
20.08.2019 01:00:00 13,0 9,5 13 7 18 10 SSW 1021,8 10
20.08.2019 00:00:00 14,1 9,1 13 7 14 8 WSW 1021,2 10
19.08.2019 23:00:00 14,7 9,0 9 5 - - WSW 1020,7 10
19.08.2019 22:00:00 16,0 9,3 15 8 22 12 WSW 1020,3 10
19.08.2019 21:00:00 17,0 9,9 15 8 25 14 WSW 1019,6 10
19.08.2019 20:00:00 19,1 10,4 13 7 - - WSW 1018,7 10
19.08.2019 19:00:00 20,2 10,1 16 9 32 18 WSW 1018,3 10
19.08.2019 18:00:00 20,7 10,2 16 9 40 21 W 1018,1 10
19.08.2019 17:00:00 20,5 9,0 21 11 - - SW 1017,9 10
19.08.2019 16:00:00 21,1 9,6 26 14 43 23 WSW 1017,7 10
19.08.2019 15:00:00 20,4 9,1 24 13 40 21 SW 1017,8 10
19.08.2019 14:00:00 18,8 9,2 24 13 - - SW 1017,7 10
19.08.2019 13:00:00 17,8 9,5 24 13 36 19 WSW 1017,5 10
19.08.2019 12:00:00 18,7 8,8 22 12 36 19 SW 1017,0 10
19.08.2019 11:00:00 17,8 10,8 22 12 - - SW 1016,8 10
19.08.2019 10:00:00 16,0 11,7 22 12 29 16 SW 1016,5 10
19.08.2019 09:00:00 14,1 11,0 21 11 29 16 SW 1016,5 10
19.08.2019 08:00:00 12,7 10,4 21 11 - - SSW 1016,3 10
19.08.2019 07:00:00 11,8 10,1 15 8 22 12 SSW 1015,8 10
19.08.2019 06:00:00 11,9 9,8 15 8 22 12 SSW 1015,2 10
19.08.2019 05:00:00 11,9 9,7 13 7 - - SSW 1014,9 10
19.08.2019 04:00:00 12,1 10,6 13 7 18 10 SSW 1014,7 10
19.08.2019 03:00:00 12,2 10,7 11 6 18 10 SSW 1014,5 10
19.08.2019 02:00:00 12,6 10,8 13 7 - - SSW 1014,4 10
19.08.2019 01:00:00 13,8 10,4 13 7 18 10 SW 1013,3 10
19.08.2019 00:00:00 13,9 10,6 11 6 14 8 SW 1012,8 10
18.08.2019 23:00:00 14,8 10,5 9 5 - - SSW 1012,4 10
18.08.2019 22:00:00 15,2 10,0 11 6 25 14 WSW 1011,9 10
18.08.2019 21:00:00 16,1 9,7 15 8 36 19 W 1011,2 10
18.08.2019 20:00:00 18,8 10,7 21 11 - - WSW 1010,2 10
18.08.2019 19:00:00 19,5 13,0 22 12 36 19 WSW 1009,5 10
18.08.2019 18:00:00 19,8 14,7 16 9 36 19 WSW 1009,1 10
18.08.2019 17:00:00 18,8 15,2 21 11 - - SW 1009,1 10
18.08.2019 16:00:00 18,0 15,1 21 11 32 18 WSW 1008,5 10
18.08.2019 15:00:00 17,3 15,6 21 11 32 18 WSW 1007,5 10
18.08.2019 14:00:00 16,3 15,6 16 9 - - WSW 1006,7 3,0
18.08.2019 13:00:00 17,1 16,0 18 10 29 16 SW 1005,7 10
18.08.2019 12:00:00 15,9 15,3 13 7 22 12 SW 1005,1 10
18.08.2019 11:00:00 14,4 13,9 11 6 - - NW 1004,8 2,2
18.08.2019 10:00:00 14,3 13,8 11 6 18 10 ESE 1003,9 2,9
18.08.2019 09:00:00 14,4 13,9 9 5 14 8 E 1004,4 5
18.08.2019 08:00:00 14,2 13,7 2 1 - - - 1005,5 3,0
18.08.2019 07:00:00 14,5 13,7 4 2 11 6 NW 1006,5 4,0
18.08.2019 06:00:00 14,4 13,8 9 5 14 8 SSE 1006,8 10
18.08.2019 05:00:00 14,4 13,6 8 4 - - SSE 1007,3 10
18.08.2019 04:00:00 14,4 13,7 9 5 14 8 S 1008,2 10
18.08.2019 03:00:00 14,5 13,9 5 3 14 8 S 1008,3 10
18.08.2019 02:00:00 14,7 14,1 8 4 - - S 1008,8 8
18.08.2019 01:00:00 14,7 14,1 11 6 14 8 WSW 1008,9 8
18.08.2019 00:00:00 14,8 14,1 9 5 22 12 SSW 1008,6 4,0
17.08.2019 23:00:00 15,2 14,6 13 7 - - W 1008,9 3,0
17.08.2019 22:00:00 16,8 16,2 9 5 22 12 SW 1008,6 10
17.08.2019 21:00:00 16,8 16,3 13 7 29 16 WSW 1008,6 2,0
17.08.2019 20:00:00 18,3 17,3 15 8 - - SSW 1008,5 10
17.08.2019 19:00:00 18,3 17,2 21 11 36 19 S 1008,6 10
17.08.2019 18:00:00 18,2 17,2 22 12 32 18 SSW 1008,8 10
17.08.2019 17:00:00 17,8 17,1 18 10 - - SSW 1009,0 4,5
17.08.2019 16:00:00 17,8 16,9 21 11 36 19 SSW 1008,8 10
17.08.2019 15:00:00 17,7 16,9 21 11 32 18 S 1008,7 10

tt = Température de l'air
td = dewpoint
ff = Vitesse du vent
fx = gusts
dd = Direction du vent
ppp = reduced air pressure
vv = visibility

stations d'obs. à proximité